W. O. Watson — WDE2805 — position and weather

sailwx.info

Track history (hours):
 
Tides and Currents Weather Stations Pressure Air Temp Water Temp Dewpoint Dewpoint Depression Visibility Wind Speed Wind Dir Waves Ship Positions

W. O. Watson

Owner: Martin Operating Partnership,LP, Vidor, TX. More information available from US FCC via Universal Licensing System and Coast Guard Vessel Documentation Center.

Last reported at 2014-Oct-25 07:32 UTC. Time now 2014-Oct-25 07:53 UTC.
Position N 29°24' W 094°45'.

Length 32 m; draft 2.8 m.

MMSI: 367329860.

Date/timePositionNaut miles runAvg speedWind from/ knotsBaromVisibWave heightAir tempDewpointWater temp
2014-Oct-25 07:32N 29°24' W 094°45'0 0.0
2014-Oct-25 06:29N 29°24' W 094°45'0 0.0
2014-Oct-25 04:23N 29°24' W 094°45'0 0.0
2014-Oct-25 03:31N 29°24' W 094°45'0 0.0
2014-Oct-24 15:32N 29°24' W 094°45'0 0.0
2014-Oct-24 14:33N 29°24' W 094°45'0 0.0
2014-Oct-24 13:33N 29°24' W 094°45'0 0.0
2014-Oct-24 12:31N 29°24' W 094°45'0 0.0
2014-Oct-24 11:33N 29°24' W 094°45'0 0.0
2014-Oct-24 10:33N 29°24' W 094°45'0 0.0
2014-Oct-24 09:33N 29°24' W 094°45'0 0.0
2014-Oct-24 08:33N 29°24' W 094°45'0 0.0
2014-Oct-24 07:31N 29°24' W 094°45'0 0.0
2014-Oct-24 06:18N 29°24' W 094°45'0 0.0
2014-Oct-24 05:31N 29°24' W 094°45'0 0.0
2014-Oct-24 04:19N 29°24' W 094°45'0 0.0
2014-Oct-24 02:22N 29°24' W 094°45'8 0.6
2014-Oct-23 12:32N 29°29' W 094°52'5 5.3
2014-Oct-23 11:34N 29°34' W 094°55'5 5.0
2014-Oct-23 10:33N 29°38' W 094°58'5 4.6
2014-Oct-23 09:33N 29°42' W 095°00'5 4.6
2014-Oct-23 08:33N 29°45' W 095°04'2 1.6
2014-Oct-23 07:30N 29°45' W 095°06'0 0.0
2014-Oct-23 06:33N 29°45' W 095°06'0 0.0
2014-Oct-23 05:34N 29°45' W 095°06'0 0.0
2014-Oct-23 04:33N 29°45' W 095°06'0 0.0
2014-Oct-23 03:11N 29°45' W 095°06'0 0.0
2014-Oct-23 02:32N 29°45' W 095°06'0 0.0
2014-Oct-23 01:32N 29°45' W 095°06'0 0.0
2014-Oct-23 00:32N 29°45' W 095°06'0 0.0
2014-Oct-22 23:22N 29°45' W 095°06'0 0.0
2014-Oct-22 22:26N 29°45' W 095°06'0 0.0
2014-Oct-22 21:23N 29°45' W 095°06'0 0.0
2014-Oct-22 20:32N 29°45' W 095°06'0 0.0
2014-Oct-22 19:30N 29°45' W 095°06'0 0.0
2014-Oct-22 18:15N 29°45' W 095°06'0 0.0
2014-Oct-22 17:29N 29°45' W 095°06'0 0.0
2014-Oct-22 16:30N 29°45' W 095°06'0 0.0
2014-Oct-22 15:33N 29°45' W 095°06'0 0.0
2014-Oct-22 14:33N 29°45' W 095°06'0 0.0
2014-Oct-22 13:33N 29°45' W 095°06'0 0.0
2014-Oct-22 12:33N 29°45' W 095°06'0 0.0
2014-Oct-22 11:33N 29°45' W 095°06'1 1.4
2014-Oct-22 10:33N 29°46' W 095°05'1 0.4
2014-Oct-22 09:04N 29°47' W 095°05'0 0.0
2014-Oct-22 08:33N 29°47' W 095°05'0 0.0
2014-Oct-22 07:27N 29°47' W 095°05'0 0.0
2014-Oct-22 06:33N 29°47' W 095°05'0 0.1
2014-Oct-22 05:33N 29°47' W 095°05'0 0.1
2014-Oct-22 04:33N 29°47' W 095°05'0 0.0
2014-Oct-22 03:33N 29°47' W 095°05'0 0.0
2014-Oct-22 02:33N 29°47' W 095°05'0 0.0
2014-Oct-22 01:33N 29°47' W 095°05'0 0.0
2014-Oct-22 00:29N 29°47' W 095°05'0 0.0
2014-Oct-21 23:31N 29°47' W 095°05'0 0.0
2014-Oct-21 22:30N 29°47' W 095°05'0 0.0
2014-Oct-21 21:33N 29°47' W 095°05'3 3.1
2014-Oct-21 20:33N 29°44' W 095°03'5 5.1
2014-Oct-21 19:33N 29°41' W 094°59'7 7.0
2014-Oct-21 18:33N 29°34' W 094°55'7 6.9
2014-Oct-21 17:33N 29°28' W 094°51'7 5.9
2014-Oct-21 16:22N 29°22' W 094°49'5 0.4
2014-Oct-21 02:32N 29°22' W 094°55'2 0.8
2014-Oct-21 00:22N 29°23' W 094°53'9 0.2
2014-Oct-19 08:33N 29°26' W 094°43'0 0.0
2014-Oct-18 16:25N 29°26' W 094°43'0 0.0
2014-Oct-18 15:33N 29°26' W 094°43'0 0.0
2014-Oct-18 14:33N 29°26' W 094°43'0 0.0
2014-Oct-18 13:24N 29°26' W 094°43'2 0.1
2014-Oct-17 15:13N 29°24' W 094°45'0 0.0
2014-Oct-17 14:30N 29°24' W 094°45'0 0.0
2014-Oct-17 13:32N 29°24' W 094°45'0 0.0
2014-Oct-17 12:09N 29°24' W 094°45'0 0.0
2014-Oct-17 03:30N 29°24' W 094°45'0 0.0
2014-Oct-17 02:32N 29°24' W 094°45'0 0.1
2014-Oct-17 01:20N 29°24' W 094°45'1 1.4
2014-Oct-17 00:21N 29°23' W 094°46'8 3.8
2014-Oct-16 22:18N 29°29' W 094°52'4 5.3
2014-Oct-16 21:33N 29°32' W 094°54'5 4.9
2014-Oct-16 20:33N 29°37' W 094°57'5 5.0
2014-Oct-16 19:34N 29°41' W 094°59'5 4.8
2014-Oct-16 18:34N 29°44' W 095°04'2 2.0
2014-Oct-16 17:28N 29°45' W 095°06'1 1.3
2014-Oct-16 16:27N 29°46' W 095°07'0 0.0
2014-Oct-16 15:05N 29°46' W 095°07'0 0.0
2014-Oct-16 14:13N 29°46' W 095°07'0 0.0
2014-Oct-16 13:32N 29°46' W 095°07'0 0.0
2014-Oct-16 12:34N 29°46' W 095°07'0 0.0
2014-Oct-16 11:33N 29°46' W 095°07'0 0.0
2014-Oct-16 10:33N 29°46' W 095°07'0 0.0
2014-Oct-16 09:33N 29°46' W 095°07'0 0.0
2014-Oct-16 08:29N 29°46' W 095°07'0 0.0
2014-Oct-16 07:21N 29°46' W 095°07'0 0.0
2014-Oct-15 16:05N 29°46' W 095°07'1 0.4
2014-Oct-15 14:33N 29°46' W 095°07'2 1.8
2014-Oct-15 13:33N 29°46' W 095°05'0 0.0
2014-Oct-15 12:33N 29°47' W 095°05'0 0.0
2014-Oct-15 11:33N 29°47' W 095°05'0 0.0
2014-Oct-15 10:33N 29°47' W 095°05'0 0.0
2014-Oct-15 09:33N 29°47' W 095°05'0 0.0
2014-Oct-15 08:33N 29°47' W 095°05'0 0.0
2014-Oct-15 07:33N 29°47' W 095°05'  
Track history (hours):
 
Tides and Currents Weather Stations Pressure Air Temp Water Temp Dewpoint Dewpoint Depression Visibility Wind Speed Wind Dir Waves Ship Positions

W. O. Watson

Owner: Martin Operating Partnership,LP, Vidor, TX. More information available from US FCC via Universal Licensing System and Coast Guard Vessel Documentation Center.

Last reported at 2014-Oct-25 07:32 UTC. Time now 2014-Oct-25 07:53 UTC.
Position N 29°24' W 094°45'.

Length 32 m; draft 2.8 m.

MMSI: 367329860.

Date/timePositionNaut miles runAvg speedWind from/ knotsBaromVisibWave heightAir tempDewpointWater temp
2014-Oct-25 07:32N 29°24' W 094°45'0 0.0
2014-Oct-25 06:29N 29°24' W 094°45'0 0.0
2014-Oct-25 04:23N 29°24' W 094°45'0 0.0
2014-Oct-25 03:31N 29°24' W 094°45'0 0.0
2014-Oct-24 15:32N 29°24' W 094°45'0 0.0
2014-Oct-24 14:33N 29°24' W 094°45'0 0.0
2014-Oct-24 13:33N 29°24' W 094°45'0 0.0
2014-Oct-24 12:31N 29°24' W 094°45'0 0.0
2014-Oct-24 11:33N 29°24' W 094°45'0 0.0
2014-Oct-24 10:33N 29°24' W 094°45'0 0.0
2014-Oct-24 09:33N 29°24' W 094°45'0 0.0
2014-Oct-24 08:33N 29°24' W 094°45'0 0.0
2014-Oct-24 07:31N 29°24' W 094°45'0 0.0
2014-Oct-24 06:18N 29°24' W 094°45'0 0.0
2014-Oct-24 05:31N 29°24' W 094°45'0 0.0
2014-Oct-24 04:19N 29°24' W 094°45'0 0.0
2014-Oct-24 02:22N 29°24' W 094°45'8 0.6
2014-Oct-23 12:32N 29°29' W 094°52'5 5.3
2014-Oct-23 11:34N 29°34' W 094°55'5 5.0
2014-Oct-23 10:33N 29°38' W 094°58'5 4.6
2014-Oct-23 09:33N 29°42' W 095°00'5 4.6
2014-Oct-23 08:33N 29°45' W 095°04'2 1.6
2014-Oct-23 07:30N 29°45' W 095°06'0 0.0
2014-Oct-23 06:33N 29°45' W 095°06'0 0.0
2014-Oct-23 05:34N 29°45' W 095°06'0 0.0
2014-Oct-23 04:33N 29°45' W 095°06'0 0.0
2014-Oct-23 03:11N 29°45' W 095°06'0 0.0
2014-Oct-23 02:32N 29°45' W 095°06'0 0.0
2014-Oct-23 01:32N 29°45' W 095°06'0 0.0
2014-Oct-23 00:32N 29°45' W 095°06'0 0.0
2014-Oct-22 23:22N 29°45' W 095°06'0 0.0
2014-Oct-22 22:26N 29°45' W 095°06'0 0.0
2014-Oct-22 21:23N 29°45' W 095°06'0 0.0
2014-Oct-22 20:32N 29°45' W 095°06'0 0.0
2014-Oct-22 19:30N 29°45' W 095°06'0 0.0
2014-Oct-22 18:15N 29°45' W 095°06'0 0.0
2014-Oct-22 17:29N 29°45' W 095°06'0 0.0
2014-Oct-22 16:30N 29°45' W 095°06'0 0.0
2014-Oct-22 15:33N 29°45' W 095°06'0 0.0
2014-Oct-22 14:33N 29°45' W 095°06'0 0.0
2014-Oct-22 13:33N 29°45' W 095°06'0 0.0
2014-Oct-22 12:33N 29°45' W 095°06'0 0.0
2014-Oct-22 11:33N 29°45' W 095°06'1 1.4
2014-Oct-22 10:33N 29°46' W 095°05'1 0.4
2014-Oct-22 09:04N 29°47' W 095°05'0 0.0
2014-Oct-22 08:33N 29°47' W 095°05'0 0.0
2014-Oct-22 07:27N 29°47' W 095°05'0 0.0
2014-Oct-22 06:33N 29°47' W 095°05'0 0.1
2014-Oct-22 05:33N 29°47' W 095°05'0 0.1
2014-Oct-22 04:33N 29°47' W 095°05'0 0.0
2014-Oct-22 03:33N 29°47' W 095°05'0 0.0
2014-Oct-22 02:33N 29°47' W 095°05'0 0.0
2014-Oct-22 01:33N 29°47' W 095°05'0 0.0
2014-Oct-22 00:29N 29°47' W 095°05'0 0.0
2014-Oct-21 23:31N 29°47' W 095°05'0 0.0
2014-Oct-21 22:30N 29°47' W 095°05'0 0.0
2014-Oct-21 21:33N 29°47' W 095°05'3 3.1
2014-Oct-21 20:33N 29°44' W 095°03'5 5.1
2014-Oct-21 19:33N 29°41' W 094°59'7 7.0
2014-Oct-21 18:33N 29°34' W 094°55'7 6.9
2014-Oct-21 17:33N 29°28' W 094°51'7 5.9
2014-Oct-21 16:22N 29°22' W 094°49'5 0.4
2014-Oct-21 02:32N 29°22' W 094°55'2 0.8
2014-Oct-21 00:22N 29°23' W 094°53'9 0.2
2014-Oct-19 08:33N 29°26' W 094°43'0 0.0
2014-Oct-18 16:25N 29°26' W 094°43'0 0.0
2014-Oct-18 15:33N 29°26' W 094°43'0 0.0
2014-Oct-18 14:33N 29°26' W 094°43'0 0.0
2014-Oct-18 13:24N 29°26' W 094°43'2 0.1
2014-Oct-17 15:13N 29°24' W 094°45'0 0.0
2014-Oct-17 14:30N 29°24' W 094°45'0 0.0
2014-Oct-17 13:32N 29°24' W 094°45'0 0.0
2014-Oct-17 12:09N 29°24' W 094°45'0 0.0
2014-Oct-17 03:30N 29°24' W 094°45'0 0.0
2014-Oct-17 02:32N 29°24' W 094°45'0 0.1
2014-Oct-17 01:20N 29°24' W 094°45'1 1.4
2014-Oct-17 00:21N 29°23' W 094°46'8 3.8
2014-Oct-16 22:18N 29°29' W 094°52'4 5.3
2014-Oct-16 21:33N 29°32' W 094°54'5 4.9
2014-Oct-16 20:33N 29°37' W 094°57'5 5.0
2014-Oct-16 19:34N 29°41' W 094°59'5 4.8
2014-Oct-16 18:34N 29°44' W 095°04'2 2.0
2014-Oct-16 17:28N 29°45' W 095°06'1 1.3
2014-Oct-16 16:27N 29°46' W 095°07'0 0.0
2014-Oct-16 15:05N 29°46' W 095°07'0 0.0
2014-Oct-16 14:13N 29°46' W 095°07'0 0.0
2014-Oct-16 13:32N 29°46' W 095°07'0 0.0
2014-Oct-16 12:34N 29°46' W 095°07'0 0.0
2014-Oct-16 11:33N 29°46' W 095°07'0 0.0
2014-Oct-16 10:33N 29°46' W 095°07'0 0.0
2014-Oct-16 09:33N 29°46' W 095°07'0 0.0
2014-Oct-16 08:29N 29°46' W 095°07'0 0.0
2014-Oct-16 07:21N 29°46' W 095°07'0 0.0
2014-Oct-15 16:05N 29°46' W 095°07'1 0.4
2014-Oct-15 14:33N 29°46' W 095°07'2 1.8
2014-Oct-15 13:33N 29°46' W 095°05'0 0.0
2014-Oct-15 12:33N 29°47' W 095°05'0 0.0
2014-Oct-15 11:33N 29°47' W 095°05'0 0.0
2014-Oct-15 10:33N 29°47' W 095°05'0 0.0
2014-Oct-15 09:33N 29°47' W 095°05'0 0.0
2014-Oct-15 08:33N 29°47' W 095°05'0 0.0
2014-Oct-15 07:33N 29°47' W 095°05'  

Dump ship's entire track history